Flag for United Kingdom

Past Weather in High Wycombe, England, United Kingdom — Yesterday and Last 2 Weeks

Now
84 °F

Warm.


Feels Like: 84 °F
Forecast: 89 / 66 °F
Wind: 3 mph from South

Location: High Wicombe Hqstc

Current Time: Aug 10, 2020 at 9:01:42 pm

Latest Report: Aug 10, 2020 at 8:00 pm


Visibility: 19 mi

Pressure: 29.90 "Hg

Humidity: 45%

Dew Point: 60 °F

Location of High WycombeLocation

Past Weather in High Wycombe — Graph

°F

High Wycombe Temperature Yesterday

Maximum temperature yesterday: 87 °F (at 4:00 pm)
Minimum temperature yesterday: 59 °F (at 6:00 am)
Average temperature yesterday: 70 °F

High & Low Weather Summary for the Past Weeks

 TemperatureHumidityPressure
High92 °F (Jul 31, 3:00 pm)100% (Jul 27, 6:00 am)30.15 "Hg (Jul 27, 6:00 am)
Low49 °F (Jul 29, 5:00 am)30% (Jul 31, 2:00 pm)29.61 "Hg (Jul 27, 4:00 pm)
Average66 °F72%29.99 "Hg
* Reported Jul 26 7:00 pm — Aug 10 7:00 pm, High Wycombe. Weather by CustomWeather, © 2020

Note: Actual official high and low records may vary slightly from our data, if they occured in-between our weather recording intervals... More about our weather records

High Wycombe Weather History for the Previous 24 Hours

Scroll right to see more
 ConditionsComfort  
Time TempWeatherWind HumidityBarometerVisibility
7:00 pm
Mon, Aug 10
86 °FPleasantly warm.6 mph39%29.89 "Hg28 mi
6:00 pm89 °FHot.6 mph38%29.88 "Hg25 mi
5:00 pm89 °FHot.8 mph36%29.89 "Hg25 mi
4:00 pm88 °FHot.8 mph45%29.90 "Hg14 mi
3:00 pm87 °FWarm.8 mph46%29.92 "Hg14 mi
2:00 pm85 °FWarm.8 mph53%29.93 "Hg7 mi
1:00 pm82 °FWarm.8 mph57%29.93 "Hg13 mi
12:00 pm79 °FWarm.9 mph66%29.94 "Hg7 mi
11:00 am75 °FMild.8 mph71%29.94 "Hg6 mi
10:00 am70 °FSmoke.3 mph81%29.97 "Hg6 mi
9:00 am65 °FSmoke.6 mph91%29.98 "Hg5 mi
8:00 am63 °FFog.7 mph97%29.98 "Hg4 mi
7:00 am61 °FFog.5 mph100%29.97 "Hg2 mi
6:00 am61 °FFog.3 mph99%29.97 "Hg2 mi
5:00 am61 °FFog.5 mph98%29.97 "Hg2 mi
4:00 am62 °FSmoke.3 mph93%29.98 "Hg3 mi
3:00 am64 °FMild.3 mph92%30.00 "Hg6 mi
2:00 am66 °FMild.2 mph86%30.00 "Hg7 mi
12:00 am68 °FMild.5 mph84%30.01 "Hg7 mi
11:00 pm
Sun, Aug 9
67 °FMild.3 mph84%30.01 "Hg7 mi
10:00 pm69 °FMild.5 mph81%30.01 "Hg11 mi
9:00 pm72 °FMild.3 mph73%30.00 "Hg12 mi
Weather by CustomWeather, © 2020

See weather overview